Spokane Fairchild, WA
on Saturday, November 24, 2012

Saturday
Previous Day Next Day
Daily Summary
 ActualAverage (KGEG)Record (KGEG)
Temperature
Mean Temperature °F 32°F  
Max Temperature 41°F 37°F 56°F (1933)
Min Temperature 31°F 28°F -9°F (1985)
Degree Days
Heating Degree Days 29 33  
Month to date heating degree days 676  
Since 1 July heating degree days 1464  
Cooling Degree Days 0 0  
Month to date cooling degree days 0  
Year to date cooling degree days 450  
Moisture
Dew Point 36°F   
Average Humidity 100    
Maximum Humidity 100    
Minimum Humidity 99    
Precipitation
Precipitation 0.01 in 0.08 in 1.37 in (1960)
Month to date precipitation 1.79  
Year to date precipitation 13.75  
Snow
Snow 0.00 in 0.40 in 4.70 in (1996)
Month to date snowfall 5.1  
Since 1 July snowfall 5.2  
Since 1 September snowfall 5.2  
Snow Depth in   
Wind
Wind Speed 11 mph   
Max Wind Speed 24 mph   
Max Gust Speed 34 mph   
Visibility 6 miles   
Events Fog , Rain   

Key: T is trace of precipitation, MM is missing value
Source: NWS Daily Summary
Time(PST)TemperatureDew PointHumidity Pressure Visibility Wind DirectionWind SpeedGust SpeedPrecipitationEvents Conditions
12:08 AM 41.0°F 41.0°F 100% 30.02 in 10.0 miles SSW 19.6 mph 25.3 mph N/A Rain Light Rain
12:21 AM 41.0°F 41.0°F 100% 29.99 in 10.0 miles South 24.2 mph 28.8 mph N/A   Overcast
12:26 AM 41.0°F 41.0°F 100% 29.99 in 10.0 miles South 19.6 mph 31.1 mph N/A   Overcast
12:58 AM 40.6°F 40.6°F 100% 30.04 in 10.0 miles South 23.0 mph 34.5 mph 0.01 in   Overcast
1:28 AM 41.0°F 41.0°F 100% 30.00 in 10.0 miles South 18.4 mph 31.1 mph N/A   Overcast
1:48 AM 41.0°F 41.0°F 100% 30.01 in 10.0 miles SSW 17.3 mph 27.6 mph N/A   Overcast
1:58 AM 41.0°F 41.0°F 100% 30.05 in 10.0 miles SSW 15.0 mph - N/A   Overcast
2:13 AM 41.0°F 41.0°F 100% 30.02 in 10.0 miles SSW 19.6 mph 25.3 mph N/A   Overcast
2:23 AM 41.0°F 41.0°F 100% 30.01 in 10.0 miles SSW 16.1 mph - N/A   Overcast
2:49 AM 41.0°F 41.0°F 100% 30.02 in 10.0 miles SSW 15.0 mph - N/A   Overcast
2:54 AM 41.0°F 41.0°F 100% 30.02 in 10.0 miles SSW 15.0 mph - N/A   Overcast
2:58 AM 41.0°F 41.0°F 100% 30.06 in 10.0 miles SSW 16.1 mph 23.0 mph 0.00 in   Overcast
3:18 AM 41.0°F 41.0°F 100% 30.03 in 8.0 miles SSW 13.8 mph - N/A   Overcast
3:38 AM 41.0°F 41.0°F 100% 30.03 in 9.0 miles SSW 12.7 mph 24.2 mph N/A   Overcast
3:43 AM 41.0°F 41.0°F 100% 30.03 in 9.0 miles SSW 17.3 mph 24.2 mph N/A   Overcast
3:50 AM 41.0°F 41.0°F 100% 30.03 in 10.0 miles SSW 15.0 mph 20.7 mph N/A   Overcast
3:58 AM 41.2°F 41.2°F 100% 30.08 in 10.0 miles SW 16.1 mph 20.7 mph 0.00 in   Overcast
4:48 AM 41.0°F 41.0°F 100% 30.05 in 10.0 miles SW 17.3 mph - N/A   Overcast
4:58 AM 40.8°F 40.8°F 100% 30.10 in 10.0 miles SW 15.0 mph - N/A   Overcast
5:58 AM 40.5°F 40.5°F 100% 30.11 in 10.0 miles SW 12.7 mph - N/A   Overcast
6:08 AM 41.0°F 41.0°F 100% 30.07 in 10.0 miles WSW 12.7 mph - N/A   Overcast
6:40 AM 39.2°F 39.2°F 100% 30.08 in 10.0 miles WSW 15.0 mph - N/A   Overcast
6:43 AM 39.2°F 39.2°F 100% 30.08 in 10.0 miles SW 15.0 mph - N/A   Overcast
6:55 AM 39.4°F 39.4°F 100% 30.13 in 10.0 miles WSW 12.7 mph - 0.00 in   Overcast
7:55 AM 37.2°F 37.2°F 100% 30.14 in 10.0 miles WSW 9.2 mph - N/A   Overcast
8:33 AM 37.4°F 37.4°F 100% 30.11 in 10.0 miles West 10.4 mph - N/A   Overcast
8:38 AM 37.4°F 37.4°F 100% 30.11 in 10.0 miles West 10.4 mph - N/A   Overcast
8:48 AM 37.4°F 37.4°F 100% 30.11 in 10.0 miles West 11.5 mph - N/A   Overcast
8:58 AM 36.5°F 36.5°F 100% 30.18 in 10.0 miles WSW 9.2 mph - N/A   Overcast
9:08 AM 35.6°F 35.6°F 100% 30.12 in 10.0 miles West 9.2 mph - N/A   Overcast
9:18 AM 35.6°F 35.6°F 100% 30.12 in 10.0 miles West 11.5 mph - N/A   Overcast
9:28 AM 35.6°F 35.6°F 100% 30.12 in 10.0 miles West 9.2 mph - N/A   Overcast
9:53 AM 35.6°F 35.6°F 100% 30.13 in 10.0 miles WSW 6.9 mph - N/A   Overcast
9:58 AM 36.0°F 36.0°F 100% 30.19 in 10.0 miles West 5.8 mph - N/A   Overcast
10:03 AM 35.6°F 35.6°F 100% 30.13 in 10.0 miles Variable 5.8 mph - N/A   Overcast
10:34 AM 35.6°F 35.6°F 100% 30.13 in 10.0 miles WSW 3.5 mph - N/A   Overcast
10:49 AM 37.4°F 37.4°F 100% 30.13 in 10.0 miles SW 2.3 mph - N/A   Overcast
10:54 AM 37.4°F 37.4°F 100% 30.13 in 10.0 miles SW 3.5 mph - N/A   Overcast
10:58 AM 36.7°F 36.7°F 100% 30.19 in 10.0 miles Variable 3.5 mph - 0.00 in   Overcast
11:28 AM 37.4°F 37.4°F 100% 30.12 in 10.0 miles WSW 6.9 mph - N/A   Mostly Cloudy
11:47 AM 39.2°F 39.2°F 100% 30.12 in 10.0 miles WSW 8.1 mph - N/A   Mostly Cloudy
11:58 AM 39.2°F 39.2°F 100% 30.16 in 10.0 miles West 4.6 mph - 0.00 in   Overcast
12:53 PM 39.2°F 39.2°F 100% 30.11 in 10.0 miles NW 3.5 mph - N/A   Overcast
12:58 PM 39.6°F 39.6°F 100% 30.16 in 10.0 miles NNW 3.5 mph - N/A   Overcast
1:38 PM 39.2°F 39.2°F 100% 30.10 in 10.0 miles ESE 2.3 mph - N/A   Scattered Clouds
1:43 PM 39.2°F 39.2°F 100% 30.10 in 10.0 miles ESE 3.5 mph - N/A   Mostly Cloudy
1:44 PM 39.2°F 39.2°F 100% 30.10 in 10.0 miles ESE 3.5 mph - N/A   Mostly Cloudy
1:49 PM 39.2°F 39.2°F 100% 30.10 in 10.0 miles SSE 2.3 mph - N/A   Mostly Cloudy
1:52 PM 39.2°F 39.2°F 100% 30.10 in 10.0 miles SE 2.3 mph - N/A   Mostly Cloudy
1:58 PM 39.4°F 39.4°F 100% 30.15 in 10.0 miles SE 3.5 mph - 0.00 in   Mostly Cloudy
2:58 PM 39.4°F 39.4°F 100% 30.15 in 8.0 miles SSE 2.3 mph - N/A   Overcast
3:48 PM 37.4°F 37.4°F 100% 30.11 in 10.0 miles ESE 1.2 mph - N/A   Scattered Clouds
3:58 PM 37.4°F 37.4°F 100% 30.17 in 10.0 miles South 3.5 mph - N/A   Partly Cloudy
4:58 PM 35.2°F 35.2°F 100% 30.16 in 10.0 miles South 4.6 mph - N/A   Partly Cloudy
5:07 PM 35.6°F 35.6°F 100% 30.10 in 6.0 miles SSW 4.6 mph - N/A   Scattered Clouds
5:12 PM 35.6°F 35.6°F 100% 30.10 in 6.0 miles SSW 3.5 mph - N/A   Mostly Cloudy
5:27 PM 35.6°F 35.6°F 100% 30.10 in 9.0 miles South 3.5 mph - N/A   Overcast
5:58 PM 35.4°F 35.2°F 99% 30.16 in 10.0 miles South 2.3 mph - N/A   Overcast
6:43 PM 35.6°F 35.6°F 100% 30.09 in 9.0 miles South 4.6 mph - N/A   Overcast
6:53 PM 33.8°F 33.8°F 100% 30.09 in 9.0 miles South 4.6 mph - N/A   Mostly Cloudy
6:58 PM 35.6°F 35.6°F 100% 30.09 in 9.0 miles South 4.6 mph - N/A   Scattered Clouds
7:18 PM 35.6°F 35.6°F 100% 30.08 in 2.5 miles WSW 3.5 mph - N/A   Scattered Clouds
7:23 PM 33.8°F 33.8°F 100% 30.08 in 2.5 miles SW 4.6 mph - N/A   Mostly Cloudy
7:33 PM 33.8°F 33.8°F 100% 30.08 in 2.5 miles SW 4.6 mph - N/A   Overcast
7:35 PM 35.6°F 35.6°F 100% 30.08 in 2.5 miles SW 4.6 mph - N/A   Overcast
7:45 PM 33.8°F 33.8°F 100% 30.09 in 3.0 miles WSW 5.8 mph - N/A   Overcast
7:50 PM 33.8°F 33.8°F 100% 30.09 in 4.0 miles WSW 5.8 mph - N/A   Overcast
7:55 PM 33.8°F 33.8°F 100% 30.08 in 5.0 miles West 5.8 mph - N/A   Overcast
7:56 PM 33.8°F 33.8°F 100% 30.08 in 5.0 miles West 5.8 mph - N/A   Overcast
7:58 PM 33.8°F 33.8°F 100% 30.08 in 5.0 miles West 4.6 mph - N/A   Overcast
8:03 PM 33.8°F 33.8°F 100% 30.08 in 5.0 miles WSW 6.9 mph - N/A   Overcast
8:08 PM 33.8°F 33.8°F 100% 30.08 in 6.0 miles WSW 8.1 mph - N/A   Overcast
8:12 PM 33.8°F 33.8°F 100% 30.08 in 8.0 miles WSW 6.9 mph - N/A   Overcast
8:20 PM 33.8°F 33.8°F 100% 30.08 in 1.8 miles SW 5.8 mph - N/A   Overcast
8:25 PM 33.8°F 33.8°F 100% 30.08 in 1.0 miles SW 5.8 mph - N/A   Mist
8:30 PM 33.8°F 33.8°F 100% 30.08 in 0.8 miles WSW 6.9 mph - N/A   Mist
8:35 PM 33.8°F 33.8°F 100% 30.08 in 0.5 miles SW 5.8 mph - N/A Fog Fog
8:45 PM 32.0°F 32.0°F 100% 30.08 in 0.5 miles WSW 5.8 mph - N/A Fog Fog
8:50 PM 32.0°F 32.0°F 100% 30.08 in 0.2 miles WSW 5.8 mph - N/A Fog Fog
8:54 PM 32.0°F 32.0°F 100% 30.08 in 0.2 miles WSW 4.6 mph - N/A Fog Light Freezing Fog
8:58 PM 32.0°F 32.0°F 100% 30.15 in 0.2 miles SW 3.5 mph - 0.00 in Fog Light Freezing Fog
9:03 PM 32.0°F 32.0°F 100% 30.08 in 0.2 miles SW 3.5 mph - N/A Fog Light Freezing Fog
9:08 PM 32.0°F 32.0°F 100% 30.08 in 0.5 miles SW 2.3 mph - N/A Fog Light Freezing Fog
9:09 PM 32.0°F 32.0°F 100% 30.08 in 0.5 miles SSW 2.3 mph - N/A Fog Light Freezing Fog
9:24 PM 32.0°F 32.0°F 100% 30.08 in 0.5 miles SW 3.5 mph - N/A Fog Light Freezing Fog
9:39 PM 32.0°F 32.0°F 100% 30.08 in 0.2 miles SW 4.6 mph - N/A Fog Light Freezing Fog
9:44 PM 32.0°F 32.0°F 100% 30.08 in 0.2 miles SW 4.6 mph - N/A Fog Light Freezing Fog
9:49 PM 32.0°F 32.0°F 100% 30.08 in 0.2 miles SSW 4.6 mph - N/A Fog Light Freezing Fog
9:54 PM 32.0°F 32.0°F 100% 30.08 in 0.2 miles SSW 4.6 mph - N/A Fog Light Freezing Fog
9:58 PM 32.0°F 31.8°F 99% 30.15 in 0.2 miles SSW 4.6 mph - 0.00 in Fog Light Freezing Fog
10:33 PM 32.0°F 32.0°F 100% 30.08 in 0.2 miles SW 2.3 mph - N/A Fog Light Freezing Fog
10:38 PM 32.0°F 32.0°F 100% 30.08 in 0.2 miles SW 3.5 mph - N/A Fog Light Freezing Fog
10:48 PM 32.0°F 32.0°F 100% 30.08 in 0.2 miles SSW 3.5 mph - N/A Fog Light Freezing Fog
10:50 PM 32.0°F 32.0°F 100% 30.08 in 0.2 miles SW 3.5 mph - N/A Fog Light Freezing Fog
10:53 PM 32.0°F 32.0°F 100% 30.08 in 0.2 miles WSW 3.5 mph - N/A Fog Light Freezing Fog
10:55 PM 32.0°F 32.0°F 100% 30.08 in 0.2 miles WSW 3.5 mph - N/A Fog Light Freezing Fog
10:58 PM 31.3°F 31.3°F 100% 30.14 in 0.2 miles SW 3.5 mph - 0.00 in Fog Light Freezing Fog
11:08 PM 32.0°F 32.0°F 100% 30.08 in 0.2 miles WSW 2.3 mph - N/A Fog Light Freezing Fog
11:23 PM 32.0°F 32.0°F 100% 30.09 in 0.5 miles Variable 3.5 mph - N/A Fog Light Freezing Fog
11:45 PM 32.0°F 32.0°F 100% 30.09 in 0.5 miles WNW 3.5 mph - N/A Fog Light Freezing Fog
11:51 PM 32.0°F 32.0°F 100% 30.09 in 0.5 miles NW 2.3 mph - N/A Fog Light Freezing Fog
11:54 PM 32.0°F 32.0°F 100% 30.09 in 0.5 miles West 4.6 mph - N/A Fog Light Freezing Fog
11:58 PM 32.0°F 32.0°F 100% 30.16 in 0.5 miles West 5.8 mph - 0.00 in Fog Light Freezing Fog
Moon Phase
Nov. 24 Nov. 28 Dec. 06 Dec. 13 Dec. 20
Sunrise:07:09 AM (PST) Moon Rise:02:02 PM (PST)
Sunset:04:05 PM (PST) Moon Set:03:18 AM (PST)

Copyright © 2014 The Weather Underground, Inc.